Location: Unspecified
(52.4292°N, 19.3359°E)
Time: 20:41:29
(UTC+02:00)

Tiros 1 - Pass Details

Date: 23 May 2024
Orbit: 624 x 657 km, 48.4° (Epoch: 15 June)

Event Time Altitude Azimuth Distance (km) Brightness Sun altitude
Rises 12:34:15 0° 223° (SW) 2,966 10.9 58.3°
Reaches altitude 10° 12:36:49 10° 212° (SSW) 2,060 10.3 58.3°
Maximum altitude 12:40:54 29° 153° (SSE) 1,207 9.6 58.3°
Drops below altitude 10° 12:45:00 10° 94° (E) 2,070 9.9 58.3°
Sets 12:47:35 0° 83° (E) 2,983 10.5 58.3°
